SL-16 DEB, 22358

Orbit data source: Space-Track

SL-16 DEB, 22358 is space debris in LEO originally from a launch on Fri, 25 Dec 1992 UTC launched from the Tyuratam Missile And Space Complex (TTMTR). Debris objects in space refer to the collection of defunct objects orbiting the Earth. Examples of debris include non-operational satellites, rocket bodies, and fragments generated from explosions, collisions, or faulty payload assembly.

Loading next visibility...
Identifier
22358, 1992-093AX
Orbit
LEO
Country
Flag of CISCIS
Related business
Manufacturer
Unknown
Mission
Spacecraft
Bus & Motor
Unknown
Mass
Unknown
Launch date (UTC)
1992-12-25 (33 years ago)
Launch vehicle
Unknown
Launch site
Tyuratam Missile And Space Complex (TTMTR)
Object type
Payload
Rocket body
Debris
Shape & HBR
Unknown shape, 1.1 m
Radar Cross Section
Medium (>0.1 m² and <1 m²)

Expand to show TLE details & history
Last TLE update: 18 hours ago

TLE from 18 hours ago
0 SL-16 DEB
1 22358U 92093AX  25348.00309031  .00000085  00000-0  10434-3 0  9999
2 22358  71.2282 244.3310 0148075 289.2233  80.3547 13.84926582665209
Epoch: 2025-12-14T00:04Z
TLE epoch observation values (Epoch: 2025-12-14T00:04:27.002Z)
Latitude
10.60882°
Longitude
163.92709°
Altitude
931.488 km
Speed
7.395 km/s
True Right ascension
16h 31m 50s
True Declination
10° 32' 54"
Sunlit
Object was in daylight at epoch
Visualization orbit readout
Latitude
Unknown
Longitude
Unknown
Altitude
Unknown
Speed
Unknown
Apparent Right ascension
Unknown
Apparent Declination
Unknown
Sunlit
N/A
Visualization observer readout
Local Sidereal Time
16:20:17
Azimuth
Unknown
Elevation
Unknown
Doppler factor
Unknown
Orbital elements
Apogee altitude
1,052.825 km
Perigee altitude
835.968 km
Semi-major axis
7,322.533 km
Eccentricity
0.01481
Inclination
71.2282°
RAAN
244.331°
Arg. of periapsis
289.2233°
True anomaly
82.03249°
Mean anomaly
80.3547°
Eccentric anomaly
81.1931°
Mean motion
3.46379 °/min
Orbital period
103.93 mins
BSTAR
0.00010434
Loading maneuver chart data...
Computing Atmospheric mass density...
Loading historical data...
Loading historical data...
Loading historical data...
Loading historical data...
Loading historical data...
Loading historical data...
Loading historical data...

Documentation

Showing up to 5 results
|